[keps] orb12355.amsat
Ray Hoad
ray.hoad at mypbmail.com
Thu Dec 20 19:21:20 PST 2012
SB KEPS @ AMSAT $ORB12355.N
2Line Orbital Elements 12355.AMSAT
HR AMSAT ORBITAL ELEMENTS FOR AMATEUR SATELLITES IN NASA FORMAT
FROM WA5QGD FORT WORTH,TX December 20, 2012
BID: ORB12355.N
DECODE 2-LINE ELSETS WITH THE FOLLOWING KEY:
1 AAAAAU 00 0 0 BBBBB.BBBBBBBB .CCCCCCCC 00000-0 00000-0 0 DDDZ
2 AAAAA EEE.EEEE FFF.FFFF GGGGGGG HHH.HHHH III.IIII JJ.JJJJJJJJKKKKKZ
KEY: A-CATALOGNUM B-EPOCHTIME C-DECAY D-ELSETNUM E-INCLINATION F-RAAN
G-ECCENTRICITY H-ARGPERIGEE I-MNANOM J-MNMOTION K-ORBITNUM Z-CHECKSUM
TO ALL RADIO AMATEURS BT
AO-07
1 07530U 74089B 12355.09192142 -.00000027 00000-0 10000-3 0 5616
2 07530 101.4148 345.2089 0011811 279.4262 080.5468 12.53593586743340
FO-29
1 24278U 96046B 12355.24202159 .00000055 00000-0 56527-4 0 67
2 24278 098.5795 071.5423 0349656 267.7030 088.4495 13.52994046807116
SO-33
1 25509U 98061B 12354.42021102 .00000443 00000-0 77486-4 0 3937
2 25509 031.4334 005.3158 0351473 024.3143 337.3630 14.28938113739164
RS-22
1 27939U 03042A 12355.36187850 .00000575 00000-0 11738-3 0 118
2 27939 097.7981 186.5400 0014142 038.2356 321.9847 14.64263220493129
VO-52
1 28650U 05017B 12355.11878981 .00001488 00000-0 18617-3 0 2959
2 28650 097.5804 016.8509 0026626 147.4349 212.8474 14.83454847412530
HO-68
1 36122U 09072B 12355.20529291 -.00000044 00000-0 00000 0 0 1167
2 36122 100.3364 050.5855 0007724 046.2107 313.9646 13.16300770144864
UO-11
1 14781U 84021B 12354.22979477 .00000484 00000-0 69750-4 0 558
2 14781 097.9297 051.9008 0010016 147.5406 212.6424 14.80697193547302
AO-16
1 20439U 90005D 12354.44794141 .00000105 00000-0 55029-4 0 6326
2 20439 098.4512 292.8262 0010821 335.8912 024.1762 14.32121876196512
LO-19
1 20442U 90005G 12355.42105005 .00000084 00000-0 46807-4 0 5659
2 20442 098.4198 296.1448 0011309 322.8415 037.1977 14.32336791196847
AO-27
1 22825U 93061C 12355.43259979 .00000196 00000-0 93803-4 0 2718
2 22825 098.5961 295.5429 0009293 092.9705 267.2565 14.29519665 3093
IO-26
1 22826U 93061D 12355.39751937 .00000098 00000-0 55172-4 0 261
2 22826 098.5910 295.8336 0009877 085.6541 274.5767 14.29798273 3216
GO-32
1 25397U 98043D 12355.05896818 -.00000081 00000-0 -17603-4 0 9533
2 25397 098.3886 324.8545 0002094 090.2536 269.8870 14.23312149750463
NO-44
1 26931U 01043C 12354.54590552 .00000324 00000-0 15791-3 0 2155
2 26931 067.0524 002.5853 0004751 261.9817 098.0772 14.29871827585742
SO-50
1 27607U 02058C 12354.84687193 .00000952 00000-0 16508-3 0 9458
2 27607 064.5577 090.0164 0068155 210.3144 149.3989 14.72692159537305
CO-55
1 27844U 03031E 12355.08283118 .00000213 00000-0 11818-3 0 5364
2 27844 098.7015 000.7616 0010435 048.9481 311.2599 14.21132507491295
CO-57
1 27848U 03031J 12355.04939944 .00000196 00000-0 11059-3 0 4848
2 27848 098.7102 000.1496 0010385 053.8196 306.3955 14.20869949491228
AO-51
1 28375U 04025K 12354.82414761 .00000122 00000-0 49439-4 0 4436
2 28375 098.1739 311.7373 0082543 198.5754 161.2408 14.41046408445502
CP3
1 31129U 07012N 12355.46885235 .00000936 00000-0 22143-3 0 3440
2 31129 097.8868 352.3429 0099458 263.7667 095.2195 14.53394696301032
CO-65
1 32785U 08021C 12355.17127415 .00000942 00000-0 12085-3 0 5024
2 32785 097.7762 051.6221 0014410 169.4132 190.7387 14.83469211251336
PRISM
1 33493U 09002B 12355.44322981 .00002698 00000-0 32210-3 0 3666
2 33493 098.1936 140.8803 0019174 055.2911 305.0146 14.84995956211383
SOHLA-1
1 33496U 09002E 12354.37924659 .00000575 00000-0 10375-3 0 9194
2 33496 098.1187 105.0818 0006632 164.1102 196.0311 14.70145670209452
SO-67
1 35870U 09049F 12355.45104432 .00004864 00000-0 19483-3 0 6238
2 35870 097.2123 024.6108 0000986 183.9627 283.2946 15.25491129180999
TISAT-1
1 36799U 10035E 12355.45034080 .00001884 00000-0 24015-3 0 6390
2 36799 098.0490 073.0787 0013548 290.3421 069.6341 14.82673460132084
STUDSAT
1 36801U 10035G 12355.21557829 .00005681 00000-0 64987-3 0 5524
2 36801 098.0573 074.5698 0011653 272.7808 087.2172 14.86355080132138
FO-69
1 37227U 0 12324.39082420 .00000949 00000-0 14124-3 0 03419
2 37227 071.9700 329.4329 0015671 026.5333 333.6607 14.77273675059013
FO-70
1 37380U 0 12324.35497821 .00000912 00000-0 13684-3 0 03454
2 37380 071.9737 330.2673 0016487 023.0914 337.0959 14.77019282058893
ALMASAT-1
1 38078U 12006B 12355.19932728 .00034177 00000-0 90165-3 0 8425
2 38078 069.4782 253.6940 0726938 014.4559 347.6164 14.16972718 43820
XATCOBEO
1 38082U 12006F 12356.04078304 .00070938 00000-0 15625-2 0 7900
2 38082 069.4832 242.1015 0658026 008.0652 353.0930 14.35225271 44281
NOAA-10
1 16969U 86073A 12355.17543950 .00000138 00000-0 73525-4 0 1816
2 16969 098.5633 020.7520 0013041 052.2217 308.0146 14.27603392366409
NOAA-11
1 19531U 88089A 12355.11710035 .00000062 00000-0 54404-4 0 1728
2 19531 098.7228 076.2804 0011946 055.0330 305.1966 14.14996907250806
NOAA-12
1 21263U 91032A 12355.33069307 .00000056 00000-0 42225-4 0 6544
2 21263 098.7140 015.9946 0014368 023.6488 336.5351 14.25537409123071
MET-3/5
1 21655U 91056A 12355.19424683 .00000385 00000-0 96838-3 0 5778
2 21655 082.5557 020.7671 0012928 212.5741 147.4585 13.17038663 26370
MET-2/21
1 22782U 93055A 12355.21318999 .00000007 00000-0 -71290-5 0 6158
2 22782 082.5474 244.9074 0022510 355.1475 004.9469 13.83696444974890
OKEAN-4
1 23317U 94066A 12354.86476254 .00000895 00000-0 10381-3 0 874
2 23317 082.5398 217.5666 0023006 096.9397 263.4436 14.84164040982346
NOAA-14
1 23455U 94089A 12355.37605646 .00000007 00000-0 26974-4 0 1353
2 23455 098.8167 076.4378 0009865 141.7917 218.3956 14.13886291927109
NOAA-15
1 25338U 98030A 12355.18149034 .00000130 00000-0 74081-4 0 5351
2 25338 098.7082 340.5155 0009804 290.2593 069.7530 14.25159441759345
RESURS
1 25394U 98043A 12354.93235835 .00000018 00000-0 25676-4 0 2622
2 25394 098.3384 333.5754 0002360 059.6088 300.5326 14.24313507750840
FENGYUN1
1 25730U 99025A 12354.88179940 .00001508 00000-0 87897-3 0 7661
2 25730 098.8616 310.8164 0020695 192.0177 168.0503 14.09944854700771
OKEAN-0
1 25860U 99039A 12354.88316567 .00000463 00000-0 77308-4 0 8193
2 25860 097.9626 314.0257 0001666 045.4901 314.6444 14.74426101721934
NOAA-16
1 26536U 00055A 12355.22692703 -.00000025 00000-0 11084-4 0 143
2 26536 099.0698 039.9944 0009764 281.2908 078.7161 14.12819377631305
NOAA-17
1 27453U 02032A 12355.30184909 .00000272 00000-0 13483-3 0 9553
2 27453 098.3224 012.7985 0011235 335.5519 024.5125 14.24523110545259
NOAA-18
1 28654U 05018A 12355.32692310 .00000119 00000-0 90244-4 0 4372
2 28654 099.0744 315.2160 0014268 354.8658 005.2384 14.11746627390821
NOAA-19
1 33591U 09005A 12355.30577396 .00000370 00000-0 22861-3 0 6226
2 33591 098.8844 292.9577 0013599 212.9534 147.0793 14.11436321199262
HUBBLE
1 20580U 90037B 12355.20693215 .00002108 00000-0 14006-3 0 1366
2 20580 028.4702 005.6798 0003375 233.7999 126.2273 15.03140676 42737
ISS
1 25544U 98067A 12355.99297306 .00011159 00000-0 18075-3 0 8698
2 25544 051.6473 273.5419 0017227 068.5108 291.8237 15.51972927211189
CO-58
1 28895U 05043F 12355.12518909 .00000658 00000-0 14324-3 0 3580
2 28895 097.8886 212.9703 0016613 287.0288 072.9088 14.60897297380802
FALCON
1 30776U 07006E 12355.06370818 .00004440 00000-0 27643-3 0 5112
2 30776 035.4325 220.2382 0001149 237.9374 122.1233 15.09151716318334
MAST
1 31126U 07012K 12355.06262690 .00000644 00000-0 15353-3 0 6373
2 31126 097.8732 355.3107 0092306 251.1866 107.9299 14.54385746301282
CAPE1
1 31130U 07012P 12354.97475170 .00000950 00000-0 22505-3 0 6485
2 31130 097.8884 351.5481 0099955 266.0173 092.9628 14.53239970300757
COMPASS
1 32787U 08021E 12354.85074047 .00002014 00000-0 24315-3 0 4954
2 32787 097.7776 051.9244 0014941 168.5242 191.6290 14.84796026251355
AAUSAT2
1 32788U 08021F 12355.18040723 .00002266 00000-0 27020-3 0 4872
2 32788 097.7780 052.7414 0014837 166.9763 193.1926 14.85191789251431
DO-64
1 32789U 08021G 12355.07622594 .00004773 00000-0 53451-3 0 5078
2 32789 097.7905 055.4564 0014372 163.3383 196.8311 14.87257320251490
CO-66
1 32791U 08021J 12355.25874749 .00001922 00000-0 23637-3 0 4842
2 32791 097.7785 051.8939 0015762 168.0982 192.0623 14.84070497251338
RS-30
1 32953U 08025A 12355.45847680 .00000010 00000-0 00000 0 0 4282
2 32953 082.4991 179.3132 0018060 262.6585 097.2445 12.43030448207708
PHARMSAT
1 35002U 09028B 12226.86484473 .07728342 73476-5 57159-3 0 789
2 35002 040.4341 050.6671 0012079 300.9773 059.0492 16.39309245183554
METEOR-M
1 35865U 09049A 12355.13637253 -.00000005 00000-0 17139-4 0 672
2 35865 098.6298 045.7280 0001661 225.9793 134.1244 14.21877004169029
RS-38
1 35869U 09049E 12355.19933420 .00000043 00000-0 38902-4 0 354
2 35869 098.6247 045.7502 0003843 230.3064 129.7786 14.22105136169054
JUGNU
1 37839U 11058B 12355.15938668 .00000620 00000-0 19019-3 0 2957
2 37839 019.9593 311.5464 0019807 110.1967 250.0461 14.12114086 61566
SRMSAT
1 37841U 11058D 12354.26454615 .00000264 00000-0 00000 0 0 2967
2 37841 019.9718 325.4782 0011421 063.4779 296.6829 14.10189008 61344
RAX-2
1 37853U 11061D 12355.26617832 .00008865 00000-0 68278-3 0 3766
2 37853 101.7038 120.3496 0241167 179.7771 180.3586 14.81851461 61932
AUBIESAT
1 37854U 11061E 12354.89434691 .00010245 00000-0 77357-3 0 3746
2 37854 101.7068 120.3317 0241571 179.8836 180.2462 14.82390359 61881
HRBE
1 37855U 11061F 12355.33617142 .00009638 00000-0 72985-3 0 3714
2 37855 101.7068 120.8530 0242707 178.8274 181.3546 14.82158486 61946
RS-39
1 38051U 11062C 12355.38581315 .00012067 00000-0 44587-3 0 07
2 38051 051.6376 350.2824 0012706 349.0404 155.8651 15.28058007 50407
E-STAR
1 38079U 12006C 12355.13343394 .00062795 00000-0 14148-2 0 7315
2 38079 069.4810 246.3447 0679699 010.4329 351.0006 14.30186190 44019
GOLIAT
1 38085U 12006J 12355.13535008 .00063170 00000-0 14279-2 0 7051
2 38085 069.4862 247.3787 0686048 011.0589 350.5256 14.28744208 43985
HORYU-2
1 38340U 12025D 12354.89858278 .00001538 00000-0 26171-3 0 2897
2 38340 098.1957 295.2780 0013783 100.6241 259.6549 14.70483757 31761
RS-40
1 38736U 12041D 12355.13001425 .00000010 00000-0 00000 0 0 1382
2 38736 082.4791 266.7712 0019420 002.5230 357.5948 12.42648887 18009
PROITERES
1 38756U 12047B 12355.46022101 .00000597 00000-0 98804-4 0 3375
2 38756 098.2743 063.0859 0011966 320.4999 039.5343 14.74016545 15060
AENEAS
1 38760U 0 12354.54971855 .00004392 00000-0 40463-3 0 00183
2 38760 064.6747 104.3800 0216659 262.6664 094.9825 14.79857661002369
CSSWE-D
1 38761U 0 12354.55100875 .00003655 00000-0 33900-3 0 00180
2 38761 064.6741 104.3900 0218383 262.6531 094.9704 14.79693633002389
CXBN-E
1 38762U 0 12354.54574126 .00004268 00000-0 39212-3 0 00176
2 38762 064.6740 104.3745 0218013 262.4335 095.1974 14.79821558002455
OBJECT F
1 38763U 0 12354.48039500 .00003422 00000-0 31788-3 0 00184
2 38763 064.6732 104.5792 0218697 262.7028 094.9169 14.79719629002381
CINEMA-G
1 38764U 0 12354.54639889 .00003590 00000-0 33273-3 0 00163
2 38764 064.6729 104.3603 0218353 262.7456 094.8781 14.79762851002352
CP5
1 38765U 0 12354.40578137 .00004349 00000-0 39908-3 0 00172
2 38765 064.6742 104.7477 0217486 262.4776 095.1598 14.79907854002331
RAIKO
1 38852U 98067CN 12355.21985954 .00042887 00000-0 58697-3 0 825
2 38852 051.6488 275.8700 0018038 059.8039 300.4735 15.56785346 11849
FITSAT 1
1 38853U 98067CP 12355.19406699 .00051828 00000-0 68089-3 0 794
2 38853 051.6507 275.7018 0015435 075.7800 284.4885 15.57848980 11891
TechEdSat
1 38854U 98067CQ 12355.20340013 .00074038 00000-0 88408-3 0 889
2 38854 051.6464 275.0140 0015647 081.6445 278.6316 15.60214634 11902
F 1
1 38855U 98067CR 12355.78658609 .00068938 00000-0 82882-3 0 923
2 38855 051.6437 272.1539 0015825 080.5116 279.8185 15.60022689 11885
WeWish
1 38856U 98067CS 12355.16716114 .00130784 00000-0 12786-2 0 1051
2 38856 051.6452 274.0145 0017616 075.8657 284.4294 15.65036735 11801
/EX
More information about the Keps
mailing list